Temp
3 2 2 3 3 3 4 4 5 5 5 5 5 5 5 5 5 4 5 5 5 5 5 5 6 6 6 6 7 7 7 7 6 5 6 7 7 7 7 7 7 7 7 7 7 7 7 7 7 8 7 7 7 6 6 6 6 6 6 6 6 5 5 5 5 5 5 5 5 5 5 6 6 6 6 7 7 7 7 8 8 7 7 7 6 6
3 3 3 3 3 4 4 4 4 5 5 5 4 4 4 5 5 4 5 5 5 5 4 5 6 6 6 6 6 7 7 6 5 5 6 6 7 7 7 7 7 7 7 6 6 6 7 7 8 8 7 7 7 7 6 6 6 5 6 6 5 5 5 5 5 5 5 5 5 5 5 6 6 7 7 7 7 8 8 8 7 7 7 7 6 6
3 3 3 3 3 3 4 4 4 4 4 5 5 4 4 5 5 5 5 5 5 5 5 5 6 6 6 5 6 7 6 5 5 5 5 6 7 8 8 7 7 7 6 6 6 7 7 7 7 7 7 7 7 7 6 6 5 5 6 6 5 5 5 5 5 5 5 5 5 5 5 6 6 7 7 7 7 8 8 8 7 7 7 6 6 6
4 4 4 4 4 4 4 4 4 4 4 4 5 5 5 5 5 4 5 5 5 5 6 6 6 6 6 5 6 6 5 5 5 5 6 7 7 8 8 8 8 7 7 6 7 7 7 7 7 7 7 7 7 6 6 6 5 5 6 6 5 5 5 5 5 5 5 5 5 5 5 6 6 6 7 7 7 7 7 8 7 7 7 6 6 6
4 4 4 4 4 4 4 5 5 4 4 5 5 5 5 5 5 4 4 5 5 6 6 6 6 5 5 5 5 5 5 5 5 6 7 7 7 8 8 9 9 8 7 7 7 7 7 7 7 7 7 7 7 6 6 5 5 5 5 5 5 5 5 5 5 5 4 4 5 5 5 5 6 6 7 7 7 7 7 7 7 7 7 6 6 6
5 4 4 4 5 5 5 5 5 5 5 5 5 5 4 4 4 4 5 5 6 6 6 6 7 7 6 6 6 6 6 6 6 7 7 8 8 8 8 8 8 8 8 7 7 7 7 7 7 7 7 7 6 6 5 5 5 5 5 5 5 5 5 5 5 4 4 4 4 5 5 5 6 6 7 7 7 7 7 7 7 7 7 6 6 6
5 5 5 5 5 6 5 5 5 5 5 5 6 6 5 4 5 5 6 6 6 7 7 7 7 7 6 7 7 7 7 7 7 7 8 8 8 8 8 8 8 8 8 8 7 7 7 7 7 7 7 6 6 5 5 5 5 5 5 5 5 5 5 5 4 4 4 4 4 5 5 5 6 6 7 7 7 7 7 7 7 7 7 6 6 6
6 5 5 5 5 6 5 5 5 5 4 5 6 6 5 5 5 6 6 6 7 7 7 7 7 7 6 7 7 7 7 7 8 8 8 8 8 8 8 8 8 8 8 8 7 7 7 7 7 7 6 6 5 5 5 5 5 5 5 5 5 5 5 4 4 4 4 4 4 5 5 5 6 6 7 7 7 7 7 7 7 7 7 6 6 6
6 6 6 6 5 5 5 5 5 4 4 5 5 5 5 5 6 6 6 6 6 7 7 7 7 6 6 6 7 7 7 8 8 8 8 9 8 8 8 8 8 7 7 7 7 7 7 7 6 6 5 5 5 5 5 5 5 5 5 5 5 5 5 4 4 4 4 4 4 4 5 5 6 6 7 7 7 7 7 7 7 7 7 6 6 6
6 6 6 6 6 6 5 5 5 5 5 5 6 6 5 6 6 6 6 7 6 7 7 7 7 7 6 6 6 6 7 7 8 8 8 8 8 8 8 8 7 7 7 7 7 7 7 6 6 5 5 5 5 5 5 5 5 6 6 5 5 5 5 5 4 4 5 5 4 5 5 5 6 6 7 7 7 7 7 7 7 7 6 6 6 6
6 6 6 6 6 6 5 6 5 5 6 6 6 6 6 6 6 6 6 6 6 6 6 6 7 7 6 6 6 6 6 7 7 8 8 8 8 8 8 8 7 6 6 7 7 7 6 5 5 5 5 5 5 5 6 6 6 6 6 5 5 5 5 5 4 4 4 5 5 5 5 5 6 6 7 7 7 7 7 7 7 7 6 6 6 6
6 6 6 6 6 6 5 6 6 6 6 6 6 6 6 6 6 6 6 6 5 5 5 6 7 7 6 6 6 6 6 7 7 7 7 7 8 8 8 7 7 5 5 7 7 6 6 5 5 5 5 5 5 6 6 6 6 6 5 5 5 5 5 5 4 4 4 5 5 5 5 5 6 6 7 7 7 7 7 7 7 7 6 6 6 6
6 6 6 6 6 6 6 6 6 6 6 6 6 6 6 6 6 6 7 7 5 5 5 6 7 7 6 6 6 7 7 7 7 7 7 6 7 8 7 7 7 6 6 7 7 6 6 5 6 6 6 5 5 6 6 6 6 5 5 5 5 5 5 5 4 4 4 5 5 5 5 5 6 6 6 6 7 7 7 7 7 7 6 6 6 6
6 6 6 6 6 6 6 6 6 6 6 6 6 6 6 7 7 7 7 7 6 5 6 6 7 7 6 5 6 7 7 8 7 7 7 7 6 7 7 7 7 6 7 7 6 6 5 6 6 6 6 6 6 6 6 5 5 5 5 5 5 5 5 5 4 4 4 5 5 5 5 5 5 5 6 6 6 6 7 7 7 6 6 6 6 6
7 7 6 6 6 6 6 6 6 6 6 6 6 6 6 7 7 7 8 8 6 6 5 6 6 6 5 5 6 7 7 8 7 6 7 7 6 6 6 6 6 6 6 6 5 5 5 6 6 6 6 6 6 5 5 5 5 5 5 5 5 5 5 5 5 4 4 5 5 5 5 5 5 5 5 5 5 5 6 6 6 6 6 6 6 6
7 7 7 6 6 6 6 6 6 6 6 6 6 6 6 7 6 6 7 7 6 6 5 5 5 5 5 5 5 6 7 7 7 7 8 7 7 6 6 5 5 5 6 6 5 5 5 5 6 6 6 6 6 5 5 5 5 5 5 5 5 5 5 5 5 4 4 5 5 5 5 5 5 5 5 5 5 5 5 5 6 6 6 6 6 6
7 7 7 7 6 6 6 6 6 6 6 6 6 7 7 7 6 6 6 6 6 6 5 5 5 5 5 5 5 5 5 6 6 6 7 7 6 7 6 5 5 5 5 5 5 5 5 5 6 6 6 5 5 5 5 6 6 6 5 5 5 5 5 5 4 4 5 5 5 5 5 5 5 5 5 5 5 5 5 5 5 5 5 6 6 5
7 7 7 7 7 7 6 6 6 6 6 6 7 7 8 7 7 7 7 7 7 6 5 5 5 5 5 5 5 5 5 6 6 6 6 6 5 6 6 5 5 5 5 5 5 5 5 5 5 5 5 5 5 5 6 6 6 5 5 5 5 5 5 5 5 5 5 5 5 5 5 5 5 5 5 5 5 5 5 5 5 5 5 5 5 5
7 7 7 8 7 7 7 6 7 7 7 7 7 8 8 7 7 8 8 8 7 7 6 5 5 5 5 5 5 5 6 6 5 5 6 5 5 5 5 5 5 6 6 6 5 5 5 6 6 5 5 5 5 5 5 6 5 5 5 5 5 5 5 5 5 5 6 6 5 5 5 5 5 5 5 5 5 5 5 5 5 5 5 5 5 5
7 7 8 8 8 8 7 7 7 7 7 8 8 8 8 8 8 8 8 8 8 8 7 5 5 6 5 5 5 5 6 5 5 6 6 6 5 5 5 6 6 6 6 6 6 6 6 6 6 5 5 5 5 5 5 5 5 5 5 5 5 5 5 5 5 6 6 5 5 4 4 5 5 5 4 4 4 4 4 4 4 4 4 4 4 4
8 7 8 8 8 8 8 8 8 8 8 8 8 9 9 9 9 8 7 7 8 8 8 6 5 5 5 5 5 5 6 6 6 6 6 6 6 5 5 6 6 6 6 6 6 6 6 6 6 6 6 6 6 5 5 6 6 6 6 5 5 5 5 5 5 6 6 5 5 4 4 5 5 4 4 4 4 4 4 4 4 4 4 4 4 4
8 7 7 7 7 8 9 9 8 8 9 8 9 9 9 9 9 8 7 7 8 9 9 7 5 5 5 5 5 5 6 6 6 6 6 6 6 6 5 6 6 6 6 6 5 5 6 6 6 6 6 6 6 6 6 6 6 6 6 6 5 5 5 5 5 5 5 5 5 4 5 5 4 4 4 4 4 4 4 4 4 3 4 4 4 4
8 8 8 8 8 9 10 9 9 9 9 9 8 9 9 9 9 8 7 7 8 8 9 8 6 5 5 5 5 5 6 6 6 6 6 6 6 6 6 6 6 6 6 6 6 5 6 6 6 6 5 5 5 6 5 5 5 5 5 6 5 5 6 5 5 5 5 5 5 4 5 5 4 4 4 4 4 4 4 4 4 3 3 3 3 3
8 8 8 8 9 9 10 9 9 9 9 9 9 9 9 9 9 9 8 8 8 8 9 8 6 4 4 5 5 5 5 6 6 6 6 6 6 6 6 6 5 5 6 6 6 6 6 6 6 6 5 5 6 6 6 5 5 5 6 6 5 5 5 5 5 4 4 4 4 4 4 4 4 4 4 4 4 4 4 4 4 3 3 3 3 3
8 8 8 9 10 10 10 9 9 9 9 9 9 9 10 10 10 9 9 9 8 8 9 9 6 5 4 5 5 5 5 5 5 6 6 6 6 6 6 6 6 5 5 5 6 6 6 5 5 5 5 5 6 6 6 5 6 5 5 5 5 5 4 4 4 4 4 4 5 5 5 5 4 4 4 4 4 4 4 4 4 4 3 3 3 3
8 8 7 8 9 9 9 9 9 9 9 9 9 9 10 10 10 9 9 9 8 8 8 8 6 4 4 5 5 5 5 5 5 5 5 6 6 6 5 5 5 5 5 5 5 5 5 5 5 5 5 5 5 5 5 5 5 5 5 5 5 4 4 4 5 5 5 5 5 5 5 5 5 5 5 5 5 4 4 4 4 4 4 3 3 3
7 7 7 7 8 8 9 9 9 9 9 9 9 9 9 9 9 9 9 8 8 7 7 6 6 5 4 5 5 5 5 5 5 5 5 5 6 6 6 5 5 5 5 5 5 5 5 5 5 5 5 5 5 5 5 5 5 5 5 5 5 5 5 5 5 5 5 5 5 6 6 5 5 5 5 5 5 5 4 4 4 4 4 4 3 3
7 7 7 7 7 8 9 9 9 9 9 9 9 9 9 8 8 8 8 8 7 7 6 5 6 5 5 5 5 5 5 6 6 6 5 5 5 5 5 5 5 5 5 5 5 5 5 5 5 5 5 5 5 5 5 5 5 5 5 5 5 5 5 5 5 5 5 5 5 5 5 5 5 5 5 5 5 5 4 4 4 4 4 4 3 3
7 7 7 7 7 8 8 9 10 9 9 9 9 9 9 8 8 8 8 8 8 8 6 5 5 5 4 5 5 5 5 5 5 5 5 5 5 5 5 5 5 5 5 5 5 5 5 5 5 5 5 5 5 5 5 5 5 5 5 5 5 5 5 5 5 5 5 5 5 5 5 5 5 5 5 5 5 4 4 4 4 4 4 4 4 4
7 7 7 7 7 8 8 9 9 9 8 8 9 9 8 8 8 8 7 7 7 7 6 5 5 4 4 4 5 4 4 5 5 5 5 5 5 5 5 5 5 5 5 5 5 5 5 5 5 5 5 5 5 5 5 5 5 5 5 5 5 5 5 5 5 5 5 5 5 5 5 5 5 4 4 4 4 4 4 4 4 4 4 4 4 4
7 7 7 7 7 8 8 9 8 8 8 8 8 8 8 8 7 7 7 7 7 6 5 5 5 4 4 4 5 4 4 4 4 4 4 4 5 5 5 6 5 5 5 5 5 5 5 5 5 5 5 5 5 5 5 5 5 5 5 5 5 5 5 5 5 5 5 5 5 5 5 5 4 4 4 4 4 4 4 4 4 4 4 4 4 4
6 6 7 7 7 8 8 9 8 8 7 8 7 7 7 7 7 6 6 6 6 6 5 5 5 4 4 4 4 4 4 4 4 4 4 4 4 4 5 5 5 6 5 5 5 5 5 5 5 5 5 5 5 5 5 5 5 5 5 5 5 5 5 5 5 5 5 5 5 5 5 4 4 4 4 4 4 4 4 4 4 4 4 4 4 4
6 6 6 6 7 7 8 8 8 7 7 6 6 6 7 7 6 6 6 6 6 6 5 5 5 4 4 4 4 4 4 4 4 4 4 4 4 4 5 4 5 5 5 5 5 5 5 5 5 5 5 5 5 5 5 5 5 5 5 5 5 5 5 5 5 5 5 5 5 4 4 4 4 4 4 4 4 4 4 4 4 4 4 3 3 3
6 6 6 6 6 7 7 8 8 8 7 6 6 6 6 6 6 6 6 6 6 6 5 5 5 4 4 4 4 4 4 4 4 4 4 4 3 4 5 4 5 6 5 5 5 5 5 5 5 5 5 5 5 5 5 5 5 5 5 5 5 4 5 5 5 5 5 4 4 4 4 4 4 4 4 4 4 4 4 4 4 3 3 3 3 3
6 6 6 6 6 7 7 7 8 7 6 6 6 6 5 5 6 6 6 6 5 5 5 5 4 4 4 4 4 4 4 4 4 4 4 4 4 4 4 5 5 5 5 5 5 5 5 5 5 5 5 5 5 5 5 5 5 5 5 4 4 4 4 4 4 4 4 4 4 4 4 4 4 4 4 4 4 4 4 4 3 3 3 3 3 3
6 6 6 6 6 6 7 7 7 6 5 5 6 6 5 5 5 6 6 5 5 5 5 5 4 4 4 4 4 4 4 4 4 4 4 5 5 5 5 5 5 5 5 5 5 5 5 5 5 5 5 5 4 4 5 4 4 5 5 5 5 4 5 5 5 5 4 4 4 4 4 4 4 4 4 4 4 4 4 4 4 3 3 3 3 3
6 6 5 6 6 6 6 7 6 6 5 5 5 5 5 5 5 6 6 5 5 5 4 4 4 4 3 4 4 4 4 4 5 4 5 5 5 5 5 5 5 5 5 5 5 5 5 4 4 4 5 5 4 4 4 4 4 4 5 5 5 5 5 5 5 5 5 5 4 4 4 4 4 4 4 4 4 4 3 3 3 3 3 3 3 3
5 5 5 5 6 6 6 6 6 6 6 5 5 5 5 5 5 5 5 5 5 5 4 4 4 4 4 4 4 4 4 4 4 4 4 5 5 5 5 4 4 5 5 4 4 4 4 4 4 4 4 4 4 4 4 4 4 4 4 4 4 4 4 4 4 4 4 4 4 4 4 4 4 4 4 4 3 3 3 3 3 3 3 3 3 3
5 5 5 5 5 6 6 6 7 7 5 5 5 5 5 5 5 5 5 4 4 4 4 4 4 4 5 4 4 4 4 4 4 4 4 4 4 4 4 4 4 4 4 4 4 4 4 4 4 4 4 4 4 4 4 4 4 4 4 4 4 4 4 4 4 4 4 4 4 4 4 4 4 4 4 4 3 3 3 3 3 3 3 3 3 3
4 5 5 5 5 5 5 5 6 6 5 5 5 5 5 5 5 5 5 4 4 4 4 4 4 4 4 4 4 4 4 4 4 4 4 4 4 4 4 4 4 4 4 4 4 4 4 4 4 4 4 4 4 4 4 4 4 4 4 4 4 4 4 4 4 4 4 4 4 4 4 4 4 4 4 4 4 4 3 3 3 3 3 3 3 3
5 5 5 5 5 4 4 4 5 5 5 5 4 5 5 5 5 5 5 4 4 4 4 4 4 4 4 4 3 4 4 4 4 4 4 4 4 4 4 4 4 4 3 3 4 4 4 4 4 4 4 4 4 4 4 4 4 4 4 4 4 4 4 4 4 4 4 4 4 4 4 4 4 4 4 4 4 4 4 4 4 4 3 3 3 3
5 5 5 4 4 4 4 3 3 4 5 5 4 5 5 4 4 5 4 4 4 4 4 4 4 4 4 3 3 4 4 3 3 3 3 4 3 3 3 3 3 3 3 3 4 4 4 4 4 4 4 4 4 4 4 4 4 4 4 4 4 4 4 4 4 4 4 4 4 4 4 4 4 4 4 4 4 4 4 4 4 4 4 3 3 3
4 4 4 4 4 4 4 3 3 4 4 4 4 4 4 4 4 4 4 4 4 4 4 4 4 4 3 3 3 4 4 3 3 3 3 3 3 3 3 3 3 3 3 4 4 4 4 4 4 4 4 4 4 4 4 4 4 4 4 4 4 4 4 4 4 4 4 4 4 4 4 4 4 4 4 4 4 4 4 4 4 4 3 3 3 4
4 4 4 4 4 4 4 3 4 4 4 4 4 4 4 4 4 3 3 3 3 3 4 4 4 3 2 2 3 3 3 3 3 3 3 3 3 3 3 3 3 3 3 4 4 4 4 4 4 4 4 4 4 4 4 4 4 4 4 4 4 4 4 4 4 4 4 4 4 4 4 4 4 4 4 4 4 3 4 4 3 3 3 3 3 3
4 4 4 4 4 4 3 3 3 3 3 3 3 3 3 4 3 3 3 3 3 3 3 3 3 3 2 2 3 3 3 3 3 3 3 3 3 3 3 3 3 3 3 3 3 4 4 4 4 4 4 4 4 4 4 4 4 4 4 4 4 4 4 4 4 4 4 4 4 4 4 4 4 4 4 3 3 3 3 3 3 3 3 3 3 3
3 4 4 4 4 4 3 3 3 3 3 3 3 3 3 3 3 3 3 3 2 2 2 2 2 2 2 2 3 3 3 3 3 3 3 3 3 3 3 3 3 3 3 3 3 3 3 3 4 4 4 4 4 4 4 4 4 4 4 4 4 4 3 3 3 3 3 3 3 3 3 3 3 3 3 3 3 3 3 3 3 3 2 2 2 2
3 3 3 3 3 3 3 3 3 3 3 3 3 3 3 3 3 3 3 2 2 2 2 2 2 1 1 2 3 3 3 3 3 3 3 3 3 3 3 3 3 3 3 3 3 3 3 3 4 4 4 4 4 4 4 3 3 3 3 3 3 3 3 3 3 3 3 3 3 3 3 3 3 3 3 3 3 3 3 3 2 2 2 2 2 2
3 3 3 3 3 3 2 2 2 2 2 2 3 3 3 3 2 2 2 2 2 2 2 2 2 2 2 3 3 3 3 3 3 3 3 3 3 3 3 3 3 3 3 3 3 3 3 3 3 3 3 3 3 3 3 3 3 3 3 3 3 3 3 3 3 3 3 3 3 3 3 3 3 3 3 3 3 2 2 2 2 2 2 1 1 1
3 3 3 3 3 3 2 2 2 2 2 2 2 2 2 2 2 2 2 2 3 3 3 3 3 3 3 3 3 3 3 3 3 3 3 3 3 3 3 3 3 3 3 3 3 3 3 3 3 3 3 3 3 3 3 3 3 3 3 3 3 3 3 3 3 3 3 3 2 2 2 2 2 2 2 2 2 2 2 2 2 2 1 1 1 1
2 2 3 3 2 2 2 2 2 2 2 2 2 2 2 2 3 3 3 3 3 3 3 3 3 3 3 3 2 2 3 2 3 3 3 3 3 3 3 3 3 3 3 3 3 3 3 3 3 3 3 3 3 3 3 3 3 3 3 3 3 3 3 3 2 2 2 2 2 2 2 2 2 2 1 1 1 1 1 1 1 1 1 1 0 0
2 2 2 2 2 2 2 2 2 1 1 2 2 2 2 3 3 3 3 3 3 3 3 3 3 2 2 2 2 2 2 2 2 3 3 3 3 3 3 3 3 3 3 3 3 3 3 3 3 3 3 3 3 3 3 3 3 3 3 2 2 2 2 2 2 2 2 2 2 2 2 1 1 1 1 1 1 1 1 1 1 1 1 1 0 -0
Height
3067 3067 3068 3067 3067 3067 3068 3068 3066 3065 3067 3067 3068 3069 3070 3071 3073 3074 3075 3075 3075 3076 3077 3078 3079 3078 3079 3080 3082 3084 3087 3089 3090 3089 3092 3094 3095 3097 3098 3100 3102 3104 3105 3106 3108 3109 3109 3110 3111 3112 3113 3115 3116 3117 3119 3120 3120 3120 3121 3122 3122 3123 3124 3125 3126 3127 3128 3128 3128 3127 3127 3126 3126 3127 3126 3126 3126 3126 3126 3126 3127 3128 3128 3129 3129 3129
3066 3066 3066 3067 3066 3067 3067 3067 3066 3066 3067 3068 3068 3069 3069 3071 3073 3074 3074 3074 3075 3077 3077 3078 3079 3079 3080 3081 3083 3085 3087 3090 3090 3090 3092 3093 3094 3096 3097 3099 3101 3103 3105 3106 3107 3108 3108 3110 3111 3111 3112 3114 3115 3117 3119 3119 3120 3120 3120 3121 3122 3122 3123 3125 3126 3127 3127 3127 3127 3127 3126 3126 3125 3125 3125 3125 3125 3125 3125 3126 3127 3128 3128 3128 3128 3129
3066 3065 3065 3066 3066 3066 3067 3066 3066 3067 3067 3068 3068 3068 3069 3070 3072 3073 3073 3074 3076 3076 3077 3077 3078 3079 3081 3083 3084 3086 3089 3091 3091 3089 3091 3093 3093 3095 3096 3098 3100 3102 3103 3105 3106 3107 3108 3109 3111 3112 3112 3113 3114 3116 3118 3118 3119 3119 3120 3121 3121 3122 3123 3124 3125 3126 3126 3126 3126 3125 3125 3125 3124 3124 3124 3124 3124 3124 3124 3125 3126 3127 3127 3127 3127 3128
3066 3066 3066 3066 3066 3067 3067 3066 3067 3067 3068 3068 3069 3069 3070 3071 3072 3073 3073 3074 3075 3076 3077 3077 3079 3080 3082 3082 3083 3085 3088 3091 3090 3088 3090 3091 3092 3094 3095 3096 3098 3100 3102 3104 3106 3107 3108 3109 3110 3111 3112 3113 3114 3115 3116 3117 3118 3119 3120 3121 3121 3122 3123 3124 3125 3126 3126 3125 3125 3124 3124 3124 3123 3122 3123 3123 3123 3123 3124 3125 3126 3126 3126 3126 3127 3127
3068 3068 3067 3067 3067 3067 3067 3066 3067 3068 3068 3068 3069 3070 3071 3071 3072 3073 3074 3074 3075 3076 3077 3078 3081 3082 3081 3081 3082 3083 3085 3088 3088 3088 3089 3090 3091 3092 3094 3095 3096 3098 3100 3103 3105 3107 3108 3109 3111 3111 3112 3112 3113 3115 3115 3116 3118 3119 3120 3121 3121 3122 3123 3124 3124 3125 3125 3124 3124 3123 3123 3122 3122 3122 3122 3122 3123 3123 3123 3124 3124 3125 3125 3126 3126 3127
3070 3069 3068 3068 3068 3068 3068 3067 3067 3068 3068 3068 3068 3070 3071 3072 3072 3073 3074 3074 3075 3077 3077 3079 3080 3080 3080 3081 3081 3082 3084 3085 3086 3087 3088 3089 3090 3092 3093 3095 3096 3098 3100 3102 3105 3107 3108 3109 3110 3111 3111 3112 3113 3114 3116 3117 3118 3119 3119 3120 3121 3122 3123 3123 3124 3124 3124 3124 3123 3122 3122 3121 3121 3121 3121 3121 3122 3122 3122 3123 3123 3124 3125 3125 3125 3126
3071 3070 3070 3070 3068 3068 3069 3068 3068 3069 3069 3069 3069 3070 3071 3071 3072 3073 3073 3074 3074 3075 3076 3078 3078 3079 3080 3080 3081 3081 3083 3084 3085 3086 3087 3088 3089 3091 3093 3095 3097 3098 3100 3102 3104 3107 3108 3109 3110 3110 3110 3111 3113 3114 3115 3116 3117 3118 3119 3120 3121 3121 3122 3123 3123 3123 3123 3123 3122 3121 3121 3121 3120 3120 3120 3120 3121 3121 3121 3122 3123 3123 3124 3125 3125 3125
3072 3072 3071 3071 3070 3069 3070 3070 3070 3070 3070 3070 3070 3071 3071 3071 3072 3074 3074 3074 3074 3074 3076 3078 3078 3079 3079 3080 3081 3082 3082 3083 3084 3085 3086 3087 3089 3091 3093 3095 3097 3098 3100 3102 3104 3106 3107 3108 3109 3110 3111 3112 3113 3114 3114 3115 3117 3118 3119 3120 3121 3121 3122 3122 3123 3123 3122 3122 3121 3121 3120 3120 3119 3119 3119 3119 3120 3120 3121 3121 3122 3123 3124 3124 3124 3124
3073 3073 3072 3072 3071 3071 3071 3071 3071 3071 3071 3072 3072 3072 3072 3072 3073 3075 3076 3075 3075 3075 3076 3077 3078 3079 3079 3079 3080 3082 3081 3082 3083 3084 3085 3087 3088 3090 3092 3094 3096 3098 3100 3102 3103 3104 3105 3106 3108 3108 3109 3111 3112 3114 3115 3116 3117 3118 3119 3120 3120 3121 3121 3122 3122 3122 3121 3121 3121 3120 3120 3119 3118 3118 3118 3118 3119 3119 3120 3121 3121 3122 3123 3123 3123 3123
3073 3073 3072 3072 3072 3072 3072 3073 3073 3073 3073 3073 3072 3073 3073 3073 3074 3075 3076 3076 3075 3075 3076 3077 3078 3079 3080 3080 3080 3082 3082 3082 3083 3084 3085 3086 3087 3089 3091 3094 3096 3097 3099 3101 3101 3102 3103 3104 3106 3106 3107 3109 3111 3113 3115 3115 3116 3118 3118 3119 3120 3120 3121 3121 3121 3121 3121 3120 3120 3120 3119 3118 3118 3118 3117 3117 3118 3119 3120 3120 3121 3121 3122 3122 3122 3122
3074 3073 3072 3071 3071 3072 3072 3073 3073 3073 3073 3073 3073 3073 3073 3074 3075 3076 3076 3076 3076 3077 3077 3078 3078 3079 3081 3081 3082 3083 3083 3083 3084 3084 3085 3086 3086 3089 3091 3094 3096 3096 3098 3101 3100 3101 3102 3103 3104 3105 3107 3109 3110 3112 3115 3116 3116 3118 3118 3119 3120 3120 3120 3121 3121 3120 3120 3120 3119 3119 3119 3118 3117 3117 3117 3117 3117 3118 3119 3119 3120 3121 3121 3121 3121 3122
3075 3073 3072 3071 3071 3072 3072 3072 3072 3072 3073 3073 3074 3074 3076 3077 3077 3077 3077 3078 3079 3080 3079 3079 3078 3079 3081 3082 3082 3083 3083 3084 3085 3085 3086 3086 3087 3089 3091 3094 3097 3095 3097 3101 3100 3100 3103 3103 3104 3106 3108 3109 3109 3112 3114 3116 3117 3118 3118 3118 3119 3119 3119 3120 3120 3120 3120 3119 3119 3119 3118 3118 3117 3117 3116 3117 3117 3117 3118 3119 3119 3120 3120 3121 3121 3121
3075 3074 3073 3071 3071 3071 3072 3072 3073 3073 3073 3074 3075 3076 3077 3077 3077 3077 3077 3077 3079 3081 3080 3079 3078 3079 3081 3081 3081 3081 3082 3084 3085 3086 3087 3088 3089 3090 3092 3095 3097 3095 3096 3101 3101 3100 3102 3104 3106 3107 3108 3108 3109 3111 3113 3115 3116 3116 3117 3117 3117 3118 3119 3119 3119 3119 3119 3119 3119 3119 3118 3118 3118 3117 3116 3116 3116 3117 3117 3118 3118 3119 3120 3120 3120 3120
3074 3074 3073 3073 3073 3072 3072 3073 3073 3073 3073 3075 3076 3077 3078 3077 3077 3077 3075 3075 3077 3079 3080 3079 3079 3081 3082 3082 3081 3080 3082 3084 3085 3085 3086 3088 3089 3091 3093 3095 3096 3096 3097 3099 3100 3101 3103 3104 3106 3107 3107 3109 3110 3111 3112 3113 3113 3113 3115 3115 3114 3116 3118 3119 3119 3119 3119 3119 3119 3119 3118 3118 3118 3117 3117 3116 3116 3116 3116 3117 3117 3118 3118 3118 3119 3119
3075 3074 3074 3074 3073 3072 3073 3073 3073 3073 3073 3075 3076 3077 3078 3076 3077 3077 3074 3075 3078 3079 3080 3080 3082 3085 3085 3085 3083 3082 3083 3084 3085 3086 3085 3087 3089 3091 3093 3094 3095 3097 3097 3097 3098 3101 3103 3104 3105 3106 3107 3109 3110 3110 3110 3110 3110 3110 3113 3114 3113 3115 3117 3118 3119 3119 3119 3119 3119 3119 3118 3118 3118 3117 3117 3117 3116 3116 3116 3116 3116 3116 3116 3116 3117 3117
3076 3076 3076 3075 3073 3074 3075 3074 3074 3074 3075 3076 3077 3078 3078 3077 3078 3078 3076 3077 3078 3080 3082 3084 3086 3088 3088 3087 3086 3086 3085 3084 3085 3087 3086 3088 3089 3091 3092 3092 3094 3097 3098 3097 3098 3100 3101 3103 3105 3106 3107 3108 3109 3109 3109 3110 3110 3111 3112 3112 3112 3114 3117 3118 3119 3119 3119 3119 3119 3118 3118 3118 3117 3117 3117 3117 3117 3116 3116 3115 3115 3115 3116 3115 3115 3115
3078 3078 3077 3076 3075 3076 3076 3076 3076 3075 3076 3077 3077 3077 3077 3077 3078 3078 3078 3080 3079 3081 3086 3087 3087 3089 3090 3090 3090 3089 3088 3086 3086 3087 3088 3089 3091 3092 3093 3094 3095 3097 3099 3100 3100 3100 3100 3102 3103 3104 3106 3107 3109 3110 3110 3111 3112 3112 3111 3110 3112 3115 3117 3118 3118 3118 3118 3118 3118 3118 3118 3117 3117 3117 3116 3116 3116 3116 3116 3115 3115 3115 3115 3115 3115 3115
3079 3079 3078 3077 3077 3078 3077 3077 3077 3077 3077 3077 3077 3077 3077 3078 3079 3078 3078 3080 3080 3083 3087 3088 3088 3089 3091 3093 3093 3092 3091 3090 3090 3090 3090 3092 3093 3094 3094 3094 3096 3098 3099 3100 3099 3098 3099 3100 3102 3103 3105 3106 3107 3109 3109 3110 3110 3110 3109 3111 3113 3115 3116 3117 3117 3117 3117 3117 3117 3117 3117 3117 3116 3116 3116 3115 3115 3115 3115 3115 3115 3115 3114 3114 3114 3114
3080 3080 3079 3078 3078 3079 3078 3078 3078 3078 3077 3076 3077 3077 3077 3078 3079 3078 3078 3079 3080 3083 3087 3089 3090 3090 3091 3093 3093 3092 3092 3092 3092 3092 3093 3094 3095 3095 3095 3095 3097 3099 3100 3099 3098 3098 3100 3101 3102 3104 3105 3106 3106 3107 3107 3107 3106 3106 3108 3112 3114 3115 3116 3116 3116 3117 3117 3117 3117 3117 3116 3115 3115 3115 3115 3114 3114 3114 3114 3114 3114 3114 3114 3113 3113 3112
3081 3080 3080 3079 3079 3079 3079 3079 3078 3079 3078 3077 3076 3077 3077 3076 3077 3078 3079 3079 3079 3081 3085 3090 3091 3090 3092 3092 3092 3093 3093 3093 3093 3094 3094 3095 3095 3095 3095 3097 3099 3099 3099 3099 3099 3101 3102 3103 3104 3105 3105 3106 3106 3106 3106 3105 3106 3107 3110 3112 3113 3114 3115 3116 3117 3117 3118 3118 3117 3115 3114 3114 3114 3114 3114 3113 3113 3113 3113 3112 3111 3111 3111 3112 3111 3111
3081 3080 3080 3081 3080 3080 3079 3079 3079 3079 3078 3077 3077 3077 3077 3077 3076 3078 3080 3080 3080 3079 3082 3088 3092 3093 3093 3093 3093 3094 3094 3094 3094 3094 3095 3095 3096 3096 3096 3097 3099 3099 3099 3099 3100 3102 3103 3104 3105 3106 3106 3107 3106 3106 3106 3106 3107 3108 3110 3111 3112 3113 3114 3115 3117 3118 3119 3119 3116 3113 3113 3112 3112 3112 3112 3112 3112 3111 3111 3110 3110 3109 3108 3109 3109 3109
3082 3081 3081 3082 3081 3080 3079 3079 3079 3079 3078 3078 3078 3077 3078 3078 3078 3079 3081 3082 3081 3081 3081 3086 3092 3095 3094 3093 3094 3095 3095 3095 3095 3095 3095 3095 3096 3097 3097 3098 3099 3099 3100 3099 3100 3102 3104 3105 3106 3107 3108 3108 3109 3108 3108 3108 3108 3109 3110 3111 3112 3113 3114 3115 3117 3118 3119 3117 3113 3111 3111 3109 3108 3107 3108 3109 3109 3109 3109 3108 3108 3108 3107 3106 3107 3107
3083 3082 3081 3081 3080 3079 3079 3079 3080 3080 3079 3078 3078 3079 3079 3078 3078 3080 3082 3082 3082 3083 3084 3086 3092 3097 3097 3095 3096 3096 3096 3096 3097 3096 3096 3096 3097 3097 3098 3098 3099 3100 3101 3102 3103 3104 3104 3106 3107 3108 3109 3110 3110 3110 3110 3109 3109 3110 3110 3111 3111 3113 3115 3117 3116 3116 3116 3114 3111 3109 3107 3105 3103 3103 3105 3106 3107 3108 3108 3107 3107 3106 3106 3105 3105 3105
3084 3083 3082 3081 3080 3079 3079 3080 3080 3079 3079 3078 3079 3079 3079 3079 3078 3079 3081 3081 3082 3084 3085 3087 3093 3098 3099 3098 3097 3098 3098 3097 3097 3097 3097 3097 3097 3098 3099 3099 3100 3100 3101 3103 3105 3105 3105 3106 3107 3108 3110 3112 3112 3111 3110 3109 3110 3110 3112 3113 3114 3114 3114 3114 3111 3110 3111 3110 3108 3106 3104 3103 3102 3103 3104 3106 3106 3107 3107 3106 3106 3105 3105 3104 3104 3104
3085 3084 3083 3081 3080 3080 3081 3081 3081 3080 3079 3079 3080 3080 3079 3079 3079 3079 3081 3082 3082 3083 3084 3087 3093 3098 3100 3099 3099 3099 3099 3099 3099 3099 3099 3099 3099 3099 3100 3101 3101 3101 3102 3103 3105 3105 3106 3106 3107 3108 3109 3111 3112 3110 3109 3109 3110 3111 3112 3112 3111 3109 3108 3107 3106 3106 3107 3107 3107 3105 3104 3104 3104 3104 3105 3105 3105 3105 3105 3105 3105 3104 3103 3103 3103 3102
3085 3085 3084 3083 3082 3082 3082 3082 3082 3082 3081 3081 3081 3081 3080 3080 3080 3080 3081 3081 3083 3085 3086 3088 3093 3098 3100 3100 3100 3100 3100 3100 3100 3100 3100 3100 3101 3101 3101 3102 3102 3103 3103 3104 3105 3106 3106 3106 3107 3107 3108 3109 3110 3109 3108 3109 3109 3109 3109 3108 3106 3105 3105 3106 3106 3106 3106 3106 3106 3105 3104 3104 3104 3104 3104 3104 3104 3104 3104 3104 3103 3103 3102 3102 3101 3101
3086 3085 3085 3085 3085 3084 3084 3083 3083 3083 3083 3082 3082 3082 3081 3081 3080 3081 3081 3082 3084 3086 3088 3091 3094 3097 3100 3101 3101 3101 3101 3100 3100 3101 3101 3101 3102 3102 3103 3103 3103 3103 3104 3104 3105 3106 3106 3106 3107 3107 3108 3109 3109 3109 3109 3109 3109 3109 3108 3107 3107 3107 3107 3107 3107 3107 3106 3105 3105 3105 3105 3104 3104 3104 3104 3104 3103 3103 3103 3102 3102 3102 3101 3100 3100 3099
3086 3087 3086 3086 3085 3085 3085 3085 3084 3084 3084 3083 3083 3083 3083 3082 3081 3081 3082 3084 3086 3086 3090 3094 3094 3095 3099 3101 3101 3101 3102 3101 3101 3102 3102 3103 3103 3103 3103 3103 3104 3104 3104 3105 3105 3106 3106 3106 3107 3108 3108 3109 3109 3110 3110 3110 3109 3109 3108 3108 3108 3107 3107 3106 3106 3106 3106 3105 3105 3105 3105 3104 3104 3104 3103 3103 3102 3102 3102 3101 3101 3100 3100 3099 3099 3098
3086 3087 3087 3086 3085 3084 3085 3084 3084 3084 3084 3084 3084 3085 3084 3084 3084 3084 3083 3085 3086 3086 3088 3092 3094 3095 3098 3100 3101 3102 3102 3102 3103 3103 3104 3104 3104 3104 3104 3104 3104 3104 3105 3105 3105 3106 3107 3107 3108 3109 3109 3109 3110 3110 3110 3110 3110 3109 3108 3108 3107 3106 3106 3105 3105 3105 3105 3104 3104 3104 3103 3103 3103 3102 3102 3102 3101 3101 3101 3100 3100 3099 3098 3098 3098 3097
3087 3087 3087 3086 3085 3084 3084 3083 3083 3083 3084 3085 3086 3086 3086 3086 3086 3086 3086 3086 3086 3086 3088 3091 3093 3094 3097 3099 3100 3101 3102 3103 3103 3104 3105 3105 3105 3106 3106 3106 3106 3105 3106 3106 3106 3107 3108 3109 3109 3110 3110 3110 3110 3110 3110 3110 3109 3109 3108 3107 3107 3106 3105 3105 3104 3104 3104 3103 3103 3103 3102 3102 3102 3101 3101 3101 3101 3101 3101 3100 3099 3098 3097 3097 3097 3096
3087 3087 3087 3086 3084 3083 3083 3083 3083 3083 3083 3085 3087 3088 3088 3088 3087 3088 3088 3088 3088 3089 3090 3092 3093 3095 3097 3099 3100 3101 3102 3103 3103 3104 3105 3105 3106 3106 3106 3106 3106 3106 3106 3106 3106 3107 3108 3109 3109 3110 3110 3110 3110 3110 3109 3109 3109 3108 3107 3107 3106 3105 3105 3104 3104 3103 3103 3103 3102 3102 3101 3101 3100 3100 3100 3100 3100 3100 3100 3099 3098 3097 3096 3096 3096 3095
3087 3086 3086 3086 3085 3083 3082 3083 3084 3084 3085 3086 3087 3088 3089 3089 3089 3089 3090 3090 3090 3090 3091 3092 3093 3095 3097 3098 3100 3101 3102 3102 3103 3104 3105 3105 3106 3106 3106 3106 3106 3106 3106 3106 3106 3107 3107 3108 3108 3108 3109 3109 3109 3108 3108 3108 3107 3107 3106 3106 3105 3104 3104 3104 3103 3103 3102 3102 3101 3101 3100 3100 3099 3099 3099 3099 3098 3098 3099 3098 3096 3095 3094 3094 3094 3093
3086 3085 3086 3086 3085 3084 3084 3084 3084 3085 3086 3087 3087 3088 3089 3090 3090 3090 3090 3091 3091 3091 3092 3093 3094 3095 3096 3098 3100 3101 3101 3102 3103 3104 3104 3105 3105 3105 3105 3105 3105 3105 3106 3106 3106 3106 3107 3107 3107 3107 3106 3106 3106 3106 3106 3106 3106 3105 3105 3104 3104 3103 3103 3103 3102 3102 3101 3101 3100 3099 3099 3099 3099 3098 3098 3097 3096 3097 3097 3096 3094 3093 3093 3092 3091 3090
3085 3085 3085 3085 3085 3085 3085 3085 3085 3084 3086 3088 3088 3088 3089 3090 3091 3091 3090 3091 3091 3092 3093 3093 3093 3095 3097 3098 3099 3100 3101 3102 3102 3103 3103 3104 3104 3104 3104 3104 3104 3104 3105 3105 3106 3106 3106 3106 3106 3105 3105 3105 3104 3104 3104 3104 3103 3103 3103 3103 3103 3102 3102 3101 3101 3100 3100 3099 3098 3098 3098 3098 3098 3097 3096 3095 3095 3095 3095 3094 3092 3091 3091 3089 3088 3088
3084 3084 3085 3084 3084 3084 3085 3086 3086 3086 3086 3087 3087 3088 3088 3090 3090 3090 3091 3091 3092 3092 3093 3093 3094 3096 3097 3098 3099 3100 3100 3101 3101 3102 3102 3103 3103 3103 3104 3103 3103 3104 3105 3105 3105 3105 3105 3105 3105 3104 3104 3104 3103 3103 3103 3102 3102 3101 3101 3101 3101 3101 3101 3100 3100 3099 3098 3097 3097 3096 3096 3096 3096 3095 3094 3093 3093 3093 3092 3091 3091 3089 3088 3087 3086 3086
3084 3084 3084 3084 3084 3084 3084 3085 3086 3087 3087 3087 3088 3088 3088 3089 3090 3090 3091 3092 3093 3093 3093 3094 3095 3096 3097 3098 3099 3099 3099 3100 3100 3101 3102 3102 3102 3103 3103 3103 3103 3103 3104 3104 3104 3104 3104 3104 3104 3103 3103 3103 3103 3102 3102 3101 3101 3100 3100 3100 3100 3099 3099 3099 3098 3098 3097 3096 3096 3095 3095 3094 3094 3093 3093 3092 3091 3090 3090 3089 3088 3087 3086 3085 3085 3084
3084 3084 3084 3084 3084 3084 3084 3085 3085 3086 3086 3087 3087 3087 3088 3088 3089 3089 3090 3092 3093 3093 3094 3094 3095 3096 3096 3097 3098 3098 3099 3099 3100 3101 3101 3101 3102 3102 3102 3102 3102 3103 3103 3103 3103 3103 3104 3103 3103 3103 3103 3102 3102 3102 3101 3100 3100 3100 3099 3099 3099 3098 3098 3098 3097 3097 3096 3096 3095 3094 3094 3093 3092 3092 3091 3090 3089 3089 3088 3087 3086 3085 3084 3084 3083 3082
3084 3084 3084 3084 3084 3084 3085 3084 3085 3085 3085 3086 3087 3087 3087 3088 3088 3089 3089 3091 3092 3093 3094 3094 3094 3096 3096 3097 3098 3098 3099 3099 3100 3100 3101 3101 3101 3101 3101 3101 3102 3102 3102 3102 3102 3103 3103 3102 3102 3102 3101 3101 3101 3101 3100 3100 3099 3099 3098 3098 3098 3097 3097 3097 3096 3096 3095 3094 3094 3093 3092 3092 3091 3090 3090 3089 3088 3087 3086 3086 3085 3084 3083 3082 3082 3080
3083 3083 3083 3083 3083 3084 3085 3084 3084 3084 3084 3085 3086 3087 3087 3088 3088 3088 3089 3091 3091 3091 3092 3093 3095 3096 3097 3097 3098 3099 3099 3099 3099 3100 3100 3100 3100 3100 3100 3101 3101 3101 3102 3102 3102 3102 3102 3101 3101 3101 3101 3100 3100 3100 3099 3099 3098 3098 3098 3097 3097 3097 3096 3096 3095 3095 3094 3094 3093 3092 3091 3091 3090 3090 3089 3088 3087 3086 3085 3084 3083 3083 3082 3081 3080 3079
3082 3082 3082 3083 3083 3084 3085 3085 3084 3084 3084 3085 3086 3087 3087 3087 3088 3088 3089 3089 3089 3090 3092 3094 3095 3096 3097 3097 3098 3098 3099 3099 3099 3100 3100 3100 3100 3100 3100 3100 3101 3101 3101 3101 3101 3101 3101 3101 3100 3100 3100 3099 3099 3099 3099 3098 3098 3097 3097 3097 3096 3096 3095 3095 3094 3094 3093 3093 3092 3092 3091 3090 3090 3089 3088 3087 3086 3085 3084 3083 3082 3082 3081 3080 3079 3078
3081 3081 3081 3082 3082 3083 3085 3087 3086 3085 3084 3085 3085 3086 3087 3087 3088 3088 3088 3088 3088 3090 3092 3093 3093 3094 3095 3097 3097 3097 3097 3098 3099 3099 3099 3099 3100 3100 3100 3100 3100 3100 3101 3101 3100 3100 3100 3100 3100 3100 3099 3099 3099 3098 3098 3098 3097 3097 3097 3096 3096 3095 3095 3094 3094 3094 3093 3093 3092 3092 3091 3090 3089 3089 3088 3087 3086 3085 3083 3082 3081 3081 3080 3079 3078 3077
3080 3080 3080 3081 3082 3082 3084 3086 3087 3085 3084 3084 3084 3086 3087 3087 3087 3087 3087 3088 3089 3090 3092 3093 3092 3093 3094 3095 3096 3096 3096 3098 3098 3099 3099 3099 3099 3099 3100 3100 3100 3100 3100 3100 3100 3100 3100 3100 3099 3099 3099 3099 3098 3098 3098 3097 3097 3097 3096 3096 3096 3095 3095 3095 3094 3094 3093 3093 3092 3092 3091 3090 3089 3089 3088 3086 3085 3084 3083 3082 3081 3080 3079 3078 3077 3076
3078 3079 3079 3079 3080 3081 3081 3083 3085 3084 3083 3083 3084 3085 3086 3086 3087 3087 3088 3089 3090 3091 3092 3092 3092 3093 3093 3094 3095 3095 3096 3097 3098 3098 3099 3099 3099 3099 3099 3100 3100 3100 3100 3100 3100 3100 3099 3099 3099 3099 3099 3098 3098 3098 3098 3097 3097 3097 3097 3097 3096 3096 3096 3095 3095 3094 3094 3093 3092 3092 3091 3090 3089 3088 3087 3086 3085 3084 3082 3081 3080 3079 3078 3077 3076 3075
3077 3077 3078 3078 3078 3079 3080 3081 3082 3081 3081 3082 3082 3084 3085 3086 3086 3087 3088 3089 3091 3092 3092 3092 3093 3093 3094 3094 3094 3095 3096 3097 3097 3098 3098 3098 3099 3099 3099 3100 3100 3100 3100 3099 3099 3099 3099 3099 3099 3099 3098 3098 3098 3098 3098 3098 3098 3098 3097 3097 3097 3096 3096 3095 3095 3094 3094 3093 3092 3091 3091 3090 3089 3088 3087 3086 3084 3083 3082 3081 3080 3078 3077 3076 3075 3073
3076 3076 3077 3077 3078 3079 3079 3080 3080 3080 3081 3082 3082 3083 3085 3087 3087 3088 3089 3090 3091 3092 3092 3093 3093 3094 3094 3094 3094 3095 3096 3096 3097 3097 3098 3098 3098 3099 3099 3099 3099 3099 3099 3099 3099 3099 3099 3099 3099 3099 3099 3099 3099 3099 3099 3099 3098 3098 3098 3097 3097 3097 3096 3095 3095 3094 3093 3093 3092 3091 3090 3089 3088 3087 3086 3085 3084 3083 3081 3080 3079 3077 3076 3075 3073 3072
3075 3075 3076 3077 3078 3078 3079 3080 3081 3081 3082 3083 3083 3084 3086 3087 3088 3089 3090 3091 3091 3091 3092 3092 3093 3094 3095 3095 3095 3095 3096 3096 3097 3097 3097 3098 3098 3098 3099 3099 3099 3099 3099 3099 3099 3099 3099 3099 3099 3099 3099 3099 3099 3099 3099 3099 3099 3098 3098 3098 3097 3097 3096 3095 3095 3094 3093 3092 3091 3090 3089 3088 3087 3086 3085 3084 3083 3082 3080 3079 3077 3076 3075 3074 3072 3071
3075 3075 3076 3077 3077 3078 3079 3081 3082 3082 3083 3084 3085 3086 3086 3088 3089 3090 3091 3091 3091 3092 3092 3093 3094 3095 3095 3096 3096 3096 3097 3097 3097 3097 3097 3098 3098 3098 3098 3099 3099 3099 3099 3099 3099 3099 3099 3100 3100 3100 3100 3100 3100 3100 3099 3099 3099 3098 3098 3097 3097 3096 3095 3095 3094 3093 3092 3091 3090 3089 3088 3087 3086 3085 3084 3083 3081 3080 3079 3078 3077 3075 3074 3072 3071 3069
3075 3075 3076 3076 3077 3078 3080 3082 3083 3083 3084 3084 3086 3087 3087 3088 3090 3090 3091 3091 3092 3092 3093 3094 3094 3095 3096 3096 3096 3097 3097 3097 3097 3097 3097 3097 3098 3098 3098 3098 3099 3099 3099 3099 3100 3100 3100 3100 3100 3100 3100 3100 3100 3100 3099 3099 3098 3098 3097 3097 3096 3095 3095 3094 3093 3092 3091 3090 3089 3088 3087 3086 3085 3084 3082 3081 3080 3079 3077 3076 3076 3075 3073 3071 3070 3068
3075 3075 3075 3076 3077 3078 3079 3081 3083 3083 3085 3086 3087 3088 3088 3089 3090 3091 3092 3092 3093 3094 3094 3095 3095 3095 3096 3096 3096 3097 3097 3097 3097 3097 3097 3098 3098 3098 3098 3098 3099 3099 3099 3100 3100 3100 3100 3100 3100 3100 3100 3100 3099 3099 3099 3098 3097 3097 3096 3096 3095 3094 3094 3093 3092 3091 3090 3089 3088 3087 3086 3085 3084 3082 3081 3079 3078 3077 3076 3074 3073 3072 3071 3070 3069 3067
3073 3074 3075 3076 3076 3078 3079 3081 3082 3084 3085 3087 3088 3088 3089 3090 3091 3092 3093 3093 3094 3095 3095 3095 3095 3096 3096 3096 3096 3096 3097 3097 3097 3097 3097 3098 3098 3098 3098 3099 3099 3099 3100 3100 3100 3100 3100 3100 3100 3100 3099 3099 3099 3098 3098 3097 3097 3096 3095 3095 3094 3093 3092 3092 3091 3090 3089 3088 3087 3086 3084 3083 3082 3081 3079 3077 3076 3074 3074 3073 3071 3070 3069 3068 3067 3066
3072 3073 3075 3075 3076 3078 3080 3081 3083 3084 3086 3087 3089 3090 3091 3092 3092 3093 3094 3094 3095 3095 3095 3096 3096 3096 3096 3096 3096 3097 3097 3097 3097 3097 3098 3098 3098 3099 3099 3099 3100 3100 3100 3100 3100 3100 3100 3099 3099 3099 3098 3098 3098 3097 3097 3096 3095 3095 3094 3093 3093 3092 3091 3090 3089 3088 3087 3086 3085 3084 3083 3081 3080 3079 3078 3076 3074 3072 3070 3069 3068 3068 3067 3066 3065 3063
Wind_Speed
3 5 7 6 6 9 11 11 6 4 5 7 7 5 8 9 7 13 14 16 19 14 10 11 9 10 14 17 19 24 27 25 21 18 18 18 16 15 14 13 12 12 13 14 16 16 15 15 13 13 14 15 15 15 16 16 16 15 14 15 15 15 15 14 13 12 13 14 14 16 17 17 15 14 16 15 14 13 14 13 11 11 11 11 11 11
4 6 7 8 6 7 6 6 3 3 5 7 5 4 9 10 8 14 16 16 19 13 10 10 7 10 15 17 18 23 26 24 21 19 19 18 18 17 15 14 14 14 15 16 17 16 16 16 15 15 16 16 15 16 17 17 17 16 15 15 15 15 14 13 13 12 13 14 15 16 16 16 16 15 15 15 13 13 14 12 10 11 11 11 11 11
6 5 1 2 5 2 4 5 5 4 5 5 3 5 10 12 11 14 17 18 15 11 11 10 7 8 15 19 19 22 24 21 19 19 17 18 19 18 16 14 15 15 16 16 17 16 16 17 16 17 17 17 16 16 17 17 17 17 16 15 15 15 14 13 12 12 13 14 15 16 15 15 16 15 14 13 13 13 12 11 10 11 12 11 11 11
4 3 3 1 3 3 4 7 8 5 4 4 5 5 8 12 12 14 19 20 13 9 11 11 8 9 14 18 18 19 20 16 15 16 15 15 15 16 15 15 16 16 15 15 16 17 18 19 18 17 17 17 17 17 18 18 17 17 15 14 15 14 13 13 12 11 13 15 16 16 15 14 14 15 14 13 12 11 10 10 10 11 12 11 11 11
4 1 2 4 4 3 1 3 5 5 5 6 8 7 9 13 12 13 17 16 12 11 12 12 11 11 14 14 13 16 17 14 14 14 15 14 13 14 15 15 16 17 16 16 17 18 20 20 18 18 18 18 18 18 18 18 17 16 15 15 15 14 13 12 11 11 13 15 15 15 15 14 13 14 13 12 11 10 10 10 11 12 11 11 11 11
4 4 4 6 7 6 5 2 4 6 7 8 11 10 9 11 9 11 15 13 11 10 14 16 10 8 13 14 14 17 17 15 15 15 14 13 13 14 15 16 17 18 18 17 17 18 19 19 18 18 19 18 18 18 18 17 16 16 15 15 15 14 14 12 10 11 13 14 15 15 14 12 12 12 13 12 10 10 10 11 12 11 10 11 11 11
3 5 4 5 6 5 4 2 2 7 8 9 9 9 10 9 7 11 13 10 7 6 13 16 6 3 9 12 15 17 17 16 16 16 15 14 14 15 15 15 16 18 18 17 17 17 18 19 19 18 18 18 17 18 18 17 16 16 15 15 15 14 13 11 10 12 13 12 13 13 12 11 10 11 12 11 10 10 10 11 12 10 10 11 12 11
1 3 3 4 6 5 5 5 2 4 8 8 5 6 10 9 6 10 9 4 3 4 9 11 5 2 4 7 10 14 17 18 16 17 17 16 16 16 15 15 17 18 18 18 17 17 18 19 19 18 17 18 17 18 18 16 16 16 15 15 15 14 12 10 10 12 12 11 11 10 11 11 10 10 10 9 10 10 10 11 11 10 10 11 11 11
0 3 2 2 3 3 6 6 3 1 4 6 5 6 8 6 5 8 7 3 3 5 7 10 7 2 2 5 8 11 16 18 16 17 17 16 16 16 17 17 17 19 19 18 18 18 19 19 18 18 18 17 17 18 17 15 15 16 15 15 15 13 11 10 10 11 11 11 11 10 11 10 9 9 9 9 10 9 9 10 10 9 10 10 10 11
2 3 2 2 1 3 4 2 1 0 3 4 5 7 7 5 6 7 5 5 6 3 4 9 7 2 2 5 8 11 13 14 15 16 15 15 16 16 18 17 18 21 20 17 17 20 21 20 19 18 16 16 18 17 15 15 16 15 14 14 14 13 10 10 11 10 9 10 10 11 11 10 9 8 8 8 9 8 8 10 10 10 10 10 11 11
4 5 3 2 1 3 3 2 1 2 4 5 5 5 2 2 4 3 2 5 5 1 3 7 4 1 2 5 8 10 13 14 16 16 15 16 18 19 19 18 18 21 20 15 16 20 21 19 17 16 15 17 18 15 13 16 17 16 16 16 15 13 10 10 10 9 8 9 9 10 10 9 9 8 7 7 8 8 8 9 10 11 11 11 12 11
3 5 6 4 0 2 2 3 2 2 4 5 6 5 3 3 4 2 5 8 4 1 5 7 4 4 4 2 3 8 13 15 14 16 16 17 20 19 20 18 17 20 18 14 15 18 16 14 15 16 17 18 17 12 13 18 18 17 17 15 14 12 10 9 9 8 8 8 8 8 8 8 8 8 8 7 7 7 9 9 9 10 11 11 12 11
2 4 5 4 1 1 1 2 3 1 3 6 6 5 3 3 6 4 4 6 2 3 5 7 6 5 6 5 3 4 12 13 10 12 16 18 18 17 18 18 17 19 16 13 14 13 12 13 14 14 15 16 14 11 13 16 15 15 16 14 14 11 9 9 8 8 7 8 7 7 7 7 8 8 8 9 8 8 8 9 9 10 10 10 11 12
4 4 3 3 4 4 0 2 2 2 4 4 3 6 4 1 3 3 2 2 3 4 5 8 7 6 7 6 5 4 12 12 7 6 12 17 16 14 15 16 18 19 15 14 16 13 11 12 11 11 13 13 13 13 14 14 14 14 14 14 13 10 9 10 9 8 7 7 7 6 7 7 7 7 8 9 9 9 8 8 8 9 10 10 11 12
4 4 5 3 3 4 2 2 4 4 3 3 3 6 6 3 3 1 0 2 5 5 5 5 4 6 7 6 6 4 9 10 9 4 7 15 15 11 10 12 18 20 17 16 16 14 11 9 8 10 11 11 12 13 12 12 11 11 13 14 12 9 10 10 9 8 7 7 7 7 7 7 8 8 8 8 9 10 10 9 8 9 11 12 12 12
5 5 7 6 7 4 2 1 3 3 3 5 4 6 6 5 4 2 5 7 10 8 5 3 5 8 10 11 11 9 10 11 10 8 7 12 13 11 11 12 15 17 17 16 15 14 12 7 6 7 9 9 10 10 10 10 11 13 13 12 9 9 10 10 9 9 8 7 7 7 7 7 8 9 9 8 8 8 9 10 10 10 10 12 13 13
5 3 4 7 9 7 5 4 2 3 4 5 5 6 6 3 7 8 8 10 11 7 3 3 6 8 8 13 16 14 13 15 14 13 11 9 7 7 7 7 6 10 15 13 10 10 10 5 4 6 6 7 9 9 9 11 14 14 10 6 6 9 10 10 11 10 8 9 9 8 7 8 9 9 10 11 11 10 10 10 12 13 13 12 12 13
9 2 1 3 5 4 4 5 2 3 3 4 3 4 6 5 6 7 6 6 6 4 3 4 4 5 4 9 16 16 15 18 18 13 13 12 9 9 7 6 6 6 7 7 5 6 7 5 5 6 6 6 6 7 8 10 12 8 4 5 7 9 10 12 12 10 9 10 10 8 7 8 9 10 11 12 13 13 13 12 13 14 14 14 14 14
9 4 1 3 3 3 3 3 1 1 2 4 3 2 4 4 5 7 5 3 4 4 4 4 5 7 7 9 14 16 16 17 16 14 13 13 11 10 9 9 9 8 7 5 4 5 6 4 6 7 8 7 7 7 9 10 7 3 4 7 8 9 11 13 12 11 11 11 10 9 8 9 9 11 13 13 13 14 15 15 15 15 14 15 16 16
8 5 3 5 5 3 2 4 0 4 2 2 2 0 1 3 3 4 3 2 3 5 4 4 5 7 8 10 13 14 13 12 12 12 12 12 12 11 9 10 10 9 11 9 7 9 6 4 5 6 6 5 6 7 8 8 4 3 7 9 9 9 11 11 11 14 16 13 9 8 9 10 10 11 13 14 14 15 16 17 18 18 17 16 17 17
9 6 4 4 5 3 2 3 3 2 1 1 1 1 2 4 4 3 4 2 2 2 4 5 4 5 7 9 11 11 11 11 9 9 10 10 10 10 9 10 11 10 11 9 10 11 7 4 4 2 3 3 6 7 7 8 6 5 7 8 9 10 9 10 12 15 17 12 7 7 9 10 10 12 13 15 17 18 19 20 20 21 21 21 20 18
8 5 5 4 5 4 3 2 5 5 4 2 1 3 4 3 4 5 4 1 2 2 7 7 4 5 8 9 11 11 11 11 10 9 10 9 8 9 8 8 10 11 11 10 9 9 7 6 5 1 1 2 3 4 5 8 8 8 7 8 10 9 8 9 13 14 10 6 4 7 10 9 8 11 14 16 19 20 22 23 23 23 24 23 22 20
8 6 6 4 4 4 2 3 4 1 2 2 1 3 3 2 8 9 2 2 5 8 11 11 6 6 11 11 10 10 11 12 11 11 12 11 8 7 7 6 6 8 11 11 10 8 6 5 5 2 1 1 1 1 1 3 5 6 7 7 8 8 8 10 12 10 5 4 6 10 13 10 9 11 14 16 18 19 21 23 23 24 24 24 23 22
10 8 6 4 2 1 5 6 3 4 5 4 0 2 2 2 8 13 8 8 10 8 10 9 5 6 12 13 11 12 12 12 13 13 13 12 11 10 9 7 6 6 7 8 9 7 6 4 3 3 1 1 2 1 1 2 4 6 7 8 9 9 8 9 9 8 5 6 9 12 13 13 13 14 15 16 16 17 17 19 20 21 21 21 22 22
8 7 6 5 1 4 8 6 2 6 7 4 4 6 6 5 8 10 9 10 9 3 4 6 6 9 13 14 14 14 14 13 14 13 12 12 12 12 11 10 9 7 5 6 6 6 5 4 4 5 5 3 2 2 4 3 4 6 5 5 6 6 6 8 10 9 8 7 8 10 10 12 13 14 15 15 15 15 14 14 15 17 17 18 19 21
8 7 8 7 3 1 2 3 2 3 5 7 8 10 9 9 9 7 8 9 7 4 6 10 14 15 13 13 14 14 14 14 14 13 11 11 11 11 10 11 11 9 8 8 8 7 7 6 6 7 7 7 6 4 5 6 7 7 6 5 6 7 8 9 8 9 8 7 6 6 6 8 9 11 12 13 14 14 14 14 14 14 15 15 17 19
8 7 7 7 7 6 4 2 2 3 6 7 9 10 10 11 9 8 11 12 11 12 14 15 18 18 14 13 15 15 13 13 13 12 11 10 10 9 9 10 11 11 10 10 10 10 9 9 8 9 9 7 6 7 8 8 7 6 6 6 7 7 7 6 6 7 7 7 6 6 6 6 7 9 10 11 11 11 12 13 13 14 15 15 16 18
5 5 6 5 6 6 4 1 1 1 4 7 10 11 12 12 11 11 13 13 14 14 14 15 18 19 14 12 14 14 12 12 12 12 11 10 10 9 10 10 10 10 9 9 9 9 9 9 8 8 8 7 7 8 9 8 7 7 7 8 9 8 7 6 6 7 7 7 7 7 7 7 8 9 9 10 10 10 11 12 13 13 14 15 16 17
3 4 6 6 7 7 7 5 4 2 2 8 11 11 13 13 13 12 10 9 11 13 16 17 17 16 14 11 13 13 13 13 13 12 11 11 10 10 10 10 9 9 9 8 7 7 7 6 5 6 6 6 7 8 8 8 8 8 8 9 10 10 9 9 9 9 9 8 8 8 9 10 10 11 11 12 11 11 12 12 13 13 13 13 15 16
3 4 5 7 8 8 8 6 6 3 7 11 10 11 13 13 14 13 11 10 12 17 21 19 16 14 12 10 11 12 12 13 13 12 12 10 9 8 7 7 7 7 6 5 4 4 5 4 3 4 5 5 7 8 8 9 10 10 10 10 10 11 11 10 11 11 10 10 10 10 11 12 12 12 13 14 14 14 14 14 15 15 14 13 14 15
4 5 5 5 6 6 4 5 7 1 11 12 9 9 10 11 13 14 13 13 16 20 20 17 15 14 11 10 10 11 12 13 12 12 11 9 8 6 4 4 5 4 3 2 1 2 3 3 2 3 3 4 5 6 7 9 10 10 11 11 11 12 12 12 13 12 12 13 12 12 13 13 14 14 14 15 16 16 15 16 16 16 16 15 15 16
3 5 5 4 8 10 6 6 7 2 11 12 10 9 7 8 10 11 11 10 13 18 17 14 13 11 11 12 11 11 11 12 12 13 11 9 8 6 4 3 2 3 3 1 0 1 2 3 4 4 5 5 6 7 8 9 10 11 11 13 13 13 13 13 14 13 13 14 13 13 13 13 14 15 14 15 16 16 16 17 18 18 18 18 17 16
3 5 5 4 8 10 9 9 8 2 8 7 8 8 6 6 7 8 10 11 11 13 13 12 12 12 13 13 12 12 11 10 10 11 9 8 6 4 4 2 1 4 3 2 2 3 4 5 6 7 9 9 10 11 11 11 11 11 12 12 13 13 14 14 14 14 14 15 15 15 15 14 15 16 16 17 17 17 17 18 20 20 20 20 19 17
5 5 5 5 7 9 9 9 9 4 2 2 5 6 6 6 7 6 10 13 11 10 11 11 12 13 14 13 12 11 10 8 8 8 7 7 4 2 3 2 4 5 4 4 4 5 6 8 9 10 11 12 12 12 12 12 12 12 12 12 12 12 13 14 15 15 15 16 16 17 17 16 16 16 17 18 18 18 18 18 20 20 20 21 20 19
6 5 4 5 7 9 8 7 6 4 1 1 4 5 7 9 9 8 10 11 9 9 10 10 12 14 16 14 12 10 8 8 8 7 6 5 3 2 1 3 5 4 4 5 7 8 8 9 10 11 11 11 12 12 12 13 13 13 13 12 12 12 12 13 13 14 15 16 17 17 17 17 17 17 18 19 18 17 17 17 18 18 18 19 19 19
9 7 6 6 6 6 5 5 4 1 1 3 4 4 9 10 7 7 10 10 8 8 10 12 14 15 14 13 12 10 9 8 7 6 4 3 4 3 3 5 5 5 5 6 7 8 8 8 9 10 10 10 11 12 12 12 13 13 13 12 12 12 12 12 12 12 12 13 14 14 15 16 16 16 16 17 17 16 16 16 16 17 17 17 17 18
7 6 5 6 6 6 5 4 3 2 3 5 4 5 10 10 6 6 9 11 10 9 10 12 15 15 13 11 10 9 8 6 4 2 1 2 2 2 3 5 5 6 6 6 6 7 7 7 8 10 10 10 10 11 12 12 12 12 13 12 12 12 12 12 12 11 11 12 12 12 13 13 14 14 14 15 15 14 14 14 15 16 15 15 15 15
6 7 6 4 4 7 7 5 4 3 3 5 5 6 10 10 7 6 7 10 10 10 11 12 13 12 11 10 8 7 5 3 2 0 1 2 2 3 4 4 5 5 6 6 6 7 8 8 9 10 11 11 11 11 12 13 13 13 13 13 13 12 12 12 11 11 11 11 12 12 12 12 12 12 12 13 13 13 13 13 13 14 14 14 14 14
7 9 10 8 6 7 7 7 7 4 2 5 5 5 7 7 7 6 5 7 10 12 14 14 12 11 11 9 8 8 5 4 4 3 3 4 4 3 4 4 5 5 6 7 8 8 9 10 10 11 12 12 12 12 13 13 13 13 13 13 12 12 11 11 10 10 10 10 11 11 11 11 11 11 12 12 12 12 13 13 13 14 14 14 14 14
9 10 11 12 11 8 8 8 9 5 3 6 6 5 6 7 8 6 4 7 10 8 8 9 10 10 11 9 8 9 8 7 7 6 5 5 4 3 5 5 5 6 7 8 9 9 10 10 11 12 12 13 13 13 13 13 12 12 12 11 11 10 10 10 10 10 10 10 10 10 10 10 11 11 11 12 12 12 12 13 13 13 13 13 13 14
9 10 10 12 11 9 9 10 9 5 5 7 7 6 6 7 8 6 4 7 10 6 6 7 7 9 11 11 9 10 10 9 8 6 5 5 3 3 5 5 5 7 8 8 9 10 10 10 11 11 11 12 12 12 12 11 11 10 9 8 8 9 9 10 10 10 10 10 10 10 10 11 11 11 11 11 11 12 12 13 13 13 13 13 13 13
5 6 6 8 8 7 8 8 7 5 7 10 8 7 8 7 6 6 7 8 8 6 7 8 7 7 10 12 11 10 9 8 7 6 5 4 4 3 4 5 6 7 8 9 9 9 9 10 10 10 10 10 10 10 9 8 8 7 8 8 9 9 10 10 10 10 10 11 11 11 11 11 11 11 12 12 12 13 13 14 14 14 14 13 13 13
3 3 3 5 4 4 5 5 4 4 8 11 9 9 9 7 6 8 9 9 8 7 9 9 8 7 9 11 12 10 9 8 8 6 5 4 4 4 5 6 7 8 8 8 9 9 9 9 9 9 9 8 8 7 6 6 7 8 9 9 9 9 10 10 10 10 11 11 11 12 12 12 12 13 13 13 14 14 15 15 15 15 15 15 15 15
3 3 4 5 4 3 5 7 6 6 8 11 11 11 10 7 7 8 9 9 9 9 9 9 9 9 8 9 10 9 8 7 6 5 4 3 4 4 5 6 7 7 8 8 9 9 9 8 8 7 6 6 5 6 6 7 8 8 8 9 9 9 10 10 11 11 11 12 12 12 13 13 13 14 14 14 15 15 16 16 16 16 16 16 16 17
3 4 5 4 3 5 7 8 8 7 8 10 11 11 9 8 9 9 8 9 9 9 8 8 9 9 9 8 7 6 5 4 3 3 3 3 4 5 5 6 6 7 7 7 7 7 6 6 5 4 4 5 5 6 6 7 7 8 8 9 9 10 10 11 11 12 12 12 13 13 14 14 14 15 15 15 15 15 16 17 17 17 17 18 18 18
4 4 4 3 3 5 6 6 6 6 6 6 8 10 10 10 11 11 9 8 8 8 6 6 7 9 8 7 5 4 3 2 2 3 3 4 5 5 6 6 6 6 6 5 5 4 3 3 3 4 5 5 5 5 5 6 7 8 9 9 10 10 11 11 12 12 12 13 13 14 14 14 15 15 15 16 16 16 16 17 18 18 18 19 19 19
4 3 3 5 6 7 6 5 6 8 7 6 9 11 11 11 11 11 10 9 9 7 6 5 7 7 6 5 4 3 2 2 2 3 4 5 6 5 5 5 4 4 3 3 2 1 3 4 4 4 4 4 4 5 6 7 8 8 9 9 10 10 11 11 12 12 13 13 14 14 15 15 16 16 16 17 17 18 18 17 18 19 19 19 19 19
3 3 4 8 10 8 7 8 10 10 10 10 11 12 13 12 11 10 10 9 8 6 5 5 5 5 4 3 2 2 3 3 4 5 5 5 5 4 4 3 2 1 0 2 3 3 3 3 2 2 3 4 5 6 7 7 8 9 9 10 11 11 12 12 12 13 14 14 15 16 16 17 17 18 18 18 18 19 20 19 19 18 19 19 19 19
2 4 6 8 10 9 9 12 14 14 14 13 12 12 12 11 11 11 9 7 5 4 4 3 3 2 2 2 3 3 3 4 4 4 4 4 3 3 2 1 1 2 3 3 3 2 1 0 2 3 4 5 6 7 8 8 9 10 11 12 12 13 13 14 14 15 15 16 16 17 18 18 18 19 20 21 20 20 20 21 22 21 20 20 20 20
4 6 7 8 9 11 12 13 15 16 17 14 11 10 10 9 8 8 7 4 3 3 2 1 1 2 2 3 3 3 3 3 3 3 3 2 2 1 2 3 3 3 3 2 1 1 1 3 4 5 6 7 8 9 10 11 12 13 13 14 14 15 15 16 16 16 17 17 17 18 19 19 20 20 21 22 23 23 23 22 23 23 22 22 21 20
6 7 9 10 11 13 14 15 16 16 15 12 10 9 9 6 6 6 5 3 3 2 2 2 3 3 3 3 3 3 3 3 2 2 1 2 3 3 4 3 3 2 2 1 2 3 4 6 6 7 9 9 11 12 12 13 14 15 15 16 16 16 17 17 18 18 19 19 19 19 20 20 21 21 21 22 23 24 26 26 25 24 23 23 22 22
Wind_Direction
232 269 241 223 205 188 193 198 171 165 190 168 172 191 185 182 179 181 183 188 187 177 179 189 178 162 165 171 174 175 178 186 189 176 173 177 173 179 187 189 194 201 203 205 209 212 215 219 219 218 217 217 218 220 221 220 223 224 223 224 223 223 226 226 231 240 251 258 261 269 277 280 278 273 270 269 262 257 254 251 240 235 242 244 245 245
274 271 236 216 188 169 205 220 163 144 175 166 167 181 185 184 180 183 184 183 181 170 169 180 172 166 172 176 178 183 189 195 191 177 175 179 177 183 189 192 197 202 207 209 211 217 221 223 224 220 218 216 215 217 219 218 220 223 223 224 222 223 225 226 231 243 254 262 268 273 276 278 277 272 269 269 261 252 250 247 237 238 243 245 246 244
293 281 333 194 208 218 283 230 186 166 164 186 212 185 186 188 183 188 186 175 166 159 165 159 150 175 183 181 183 191 195 195 186 172 174 182 181 183 187 193 202 207 213 215 217 226 230 228 226 223 220 216 215 216 217 218 219 221 223 224 222 223 224 225 231 244 258 269 277 280 278 276 276 274 272 268 260 254 251 244 235 241 246 246 247 244
332 308 31 58 213 223 258 211 190 185 170 196 218 212 199 191 188 187 181 170 155 156 165 151 153 187 190 181 180 189 193 191 181 171 177 187 184 187 193 199 205 211 217 220 222 228 230 228 225 224 223 219 216 214 215 218 219 222 223 220 221 225 224 224 234 247 261 272 278 281 281 276 274 273 272 265 258 259 256 245 238 242 247 248 249 247
30 13 72 67 84 84 314 216 204 211 213 210 203 212 208 192 192 185 173 163 149 155 167 160 166 190 195 184 176 186 190 187 184 180 185 193 194 202 208 210 212 213 215 222 226 228 230 229 224 221 222 222 217 213 215 218 220 222 219 217 221 225 224 226 237 251 262 271 276 281 280 274 272 272 270 264 258 257 251 244 241 243 248 252 252 248
48 67 61 47 55 46 14 339 239 220 222 222 201 195 192 185 187 172 157 151 146 155 174 180 183 186 191 194 192 192 190 189 191 191 194 200 210 216 215 218 220 217 214 217 227 231 231 228 223 220 220 220 218 215 216 218 220 221 217 217 223 223 223 228 241 254 261 269 276 280 279 274 274 274 269 262 256 252 247 243 245 249 253 255 254 250
58 57 55 31 26 17 14 34 237 222 220 222 199 186 187 187 185 167 153 146 147 156 180 195 212 167 185 202 200 194 191 193 194 194 198 203 213 216 212 219 224 220 215 213 221 229 230 229 224 220 218 216 216 215 214 214 217 220 218 220 224 223 222 227 241 255 261 269 277 280 280 278 278 277 269 261 253 250 247 246 252 260 260 258 258 253
69 18 45 11 358 354 8 54 94 218 210 202 188 189 194 197 196 173 163 153 139 136 170 197 219 184 209 217 206 200 195 195 197 195 197 201 210 211 206 216 222 218 215 212 216 223 227 230 227 220 217 214 214 217 217 214 214 219 220 222 224 219 218 225 240 255 264 270 276 283 286 287 287 282 273 261 249 245 246 249 254 261 262 261 262 258
266 328 5 329 336 9 17 45 68 194 174 164 163 175 180 185 187 178 187 212 169 150 167 190 202 207 221 206 208 208 195 196 203 202 202 204 210 211 206 214 219 216 214 213 214 218 221 225 226 221 214 210 212 214 216 215 214 218 220 221 223 217 213 226 241 252 263 269 274 280 286 296 302 292 278 265 255 246 246 254 257 260 261 260 261 258
288 289 302 284 316 57 45 64 180 194 144 166 164 162 172 178 166 171 197 189 162 165 180 182 197 215 146 169 194 204 202 208 212 210 214 215 216 219 219 221 219 215 214 212 215 216 216 218 220 221 215 210 211 209 214 221 218 218 218 218 220 215 214 227 239 247 258 268 275 281 289 302 308 300 288 277 267 256 248 253 259 262 262 259 258 258
309 294 328 312 243 105 65 42 56 136 147 168 154 141 170 172 145 140 194 171 153 257 190 162 167 142 124 158 179 197 211 217 221 226 233 235 230 225 227 225 217 216 214 209 218 220 215 212 214 221 220 217 216 209 207 214 217 217 214 213 213 210 216 228 237 245 254 268 277 285 296 310 314 313 313 303 288 275 261 256 259 263 266 265 264 263
297 306 335 329 159 117 16 15 68 122 139 151 149 142 125 138 166 197 199 188 179 165 155 143 120 83 84 118 200 214 210 203 216 231 230 237 240 229 227 224 212 217 214 197 209 221 220 218 215 218 223 224 224 217 201 200 208 214 208 207 207 205 213 226 237 247 256 270 279 287 302 322 333 336 336 328 312 294 280 271 266 266 271 273 271 267
307 313 330 328 316 339 345 62 108 138 166 163 160 161 147 164 189 191 185 187 158 87 112 118 114 80 57 35 1 207 194 187 203 231 223 223 237 234 227 223 212 218 219 197 199 214 223 224 220 216 216 221 225 221 209 201 202 206 205 205 203 199 212 227 237 249 257 274 281 294 312 328 347 353 351 342 328 313 295 286 281 275 276 278 277 273
311 316 348 332 292 285 249 129 168 204 201 200 197 193 195 216 177 156 148 148 105 102 104 101 98 55 36 35 42 143 180 181 179 234 227 210 217 227 225 224 216 214 220 211 200 203 218 220 220 221 215 215 218 216 216 212 202 196 200 209 205 199 215 229 238 250 260 278 286 301 315 324 341 354 0 354 341 330 315 302 292 283 281 280 277 276
340 8 27 355 290 262 219 178 192 188 191 222 231 205 211 271 275 233 95 114 98 97 92 82 65 33 35 44 45 107 161 154 128 124 196 191 196 208 212 220 214 210 220 222 202 191 200 209 214 223 218 214 216 214 215 217 213 206 203 205 203 205 220 230 240 251 262 278 287 298 309 321 334 342 351 354 348 341 333 322 306 288 282 279 276 274
9 45 43 44 68 96 139 152 194 174 163 196 205 203 214 233 212 111 69 99 107 98 83 65 80 81 68 64 74 100 122 118 96 80 135 177 192 195 197 212 210 204 212 220 210 187 179 192 203 205 212 213 213 215 215 213 218 224 220 206 197 211 227 234 239 247 261 274 281 288 298 317 328 330 333 334 337 338 335 333 325 311 297 286 282 279
14 75 64 47 60 78 102 102 117 87 105 173 191 201 207 167 138 121 96 111 115 97 85 102 124 125 89 73 87 99 105 103 85 66 89 133 162 161 180 207 194 186 193 197 203 183 165 170 172 174 203 213 206 210 218 218 215 218 227 225 216 227 238 244 243 245 256 268 275 282 294 310 315 316 319 322 325 329 332 333 328 322 318 306 293 284
2 12 107 4 14 36 64 79 85 47 81 148 155 171 169 135 138 138 121 133 129 99 106 135 142 136 102 84 90 93 100 103 98 87 92 101 101 103 120 134 124 137 165 170 174 157 144 143 145 162 194 209 215 222 231 235 225 212 221 243 242 242 248 252 251 251 255 261 268 275 285 295 301 308 313 317 324 329 332 330 323 321 320 314 306 296
359 0 54 352 10 64 33 11 277 283 91 117 104 133 154 149 175 162 136 143 137 115 120 122 92 69 72 87 88 89 96 99 98 97 98 102 105 106 110 113 111 100 96 121 143 117 117 130 145 175 198 201 217 235 240 246 247 253 262 255 251 252 254 255 257 264 259 251 257 269 279 286 294 305 311 315 322 327 329 325 320 319 314 308 308 305
4 2 25 12 25 67 7 359 83 194 189 52 28 263 107 43 76 130 109 96 128 123 121 120 95 68 73 86 85 85 93 98 97 94 92 98 101 100 99 101 102 91 87 96 93 90 110 151 156 188 219 221 233 247 254 261 270 264 259 258 261 262 260 257 259 263 257 245 243 259 272 281 293 305 311 315 320 323 325 324 322 321 317 311 308 306
6 3 14 358 353 3 352 26 62 127 199 314 336 73 31 15 41 71 58 82 173 152 114 116 93 68 78 91 90 90 96 101 100 98 99 103 103 101 99 95 96 92 86 82 77 85 105 135 140 203 268 285 277 278 286 291 288 267 261 264 268 268 269 265 256 251 252 251 248 259 270 279 295 306 308 310 314 317 320 322 322 321 320 319 315 309
11 4 345 303 278 306 326 57 73 47 42 95 112 40 33 20 67 64 31 41 184 118 109 118 104 81 92 100 98 94 95 94 91 96 106 112 112 109 102 89 88 94 93 86 77 82 99 117 118 132 301 323 304 302 305 295 280 267 263 259 260 265 274 271 255 242 243 258 272 271 269 269 283 297 304 310 315 317 318 319 319 316 315 317 318 315
7 349 338 307 267 304 344 124 125 32 31 116 254 9 33 72 87 88 106 164 114 107 110 109 104 103 101 98 97 97 95 93 91 91 93 93 94 101 106 102 92 90 92 94 97 94 90 100 107 103 103 95 99 151 340 313 282 269 266 261 263 268 270 268 258 247 247 282 286 274 270 276 294 303 310 316 316 316 316 315 314 312 309 309 310 311
358 358 356 331 300 61 110 121 72 21 63 96 222 15 25 38 86 96 118 121 105 117 128 112 100 116 108 101 102 103 97 93 90 86 83 79 76 80 92 101 98 93 91 95 102 94 71 56 43 22 31 119 152 203 314 317 272 265 258 252 255 258 266 278 281 287 308 316 305 298 300 311 319 318 316 314 312 311 311 310 308 306 306 305 304 304
352 7 358 335 346 124 131 136 40 37 50 29 34 62 49 43 72 89 109 110 101 122 143 116 107 113 112 110 111 109 104 96 90 85 82 78 75 77 86 92 94 97 95 87 86 77 58 35 12 11 19 35 47 337 315 311 300 299 291 274 275 289 316 329 331 337 354 357 336 328 329 326 322 318 313 307 305 305 304 305 305 303 303 304 302 301
341 351 353 350 0 76 108 121 99 52 17 3 36 55 47 51 68 89 105 100 96 80 78 104 120 118 115 118 117 114 108 100 93 89 84 79 78 79 82 84 85 86 86 82 81 79 69 54 42 44 48 45 46 29 0 4 2 348 344 345 339 345 350 346 342 348 359 6 1 352 340 325 314 308 303 301 303 304 302 302 302 301 303 304 302 300
329 335 346 340 326 322 350 46 91 34 8 27 55 56 49 53 68 98 101 96 101 91 79 100 123 121 114 113 108 105 104 100 96 94 90 84 81 79 75 73 73 74 76 74 75 76 72 66 60 58 57 52 45 38 28 26 21 2 354 355 355 0 359 347 344 351 352 354 358 354 340 326 310 298 297 301 304 305 304 303 302 302 304 303 301 301
348 343 346 343 331 322 321 307 160 357 6 47 67 63 59 60 73 98 104 107 116 106 98 117 128 122 118 116 109 105 106 107 102 98 98 92 84 80 77 73 68 66 64 59 59 61 56 54 51 47 46 39 31 31 33 33 24 9 358 353 356 1 359 352 352 352 346 344 348 342 332 325 316 308 308 308 307 306 304 302 304 305 304 303 303 305
349 329 335 338 324 297 274 263 247 245 58 73 75 72 71 72 79 90 94 108 132 134 132 136 132 123 124 127 122 117 113 112 107 101 100 96 90 90 88 82 76 72 66 56 52 59 61 55 42 34 31 23 17 18 19 15 9 0 350 349 351 346 341 339 338 336 333 331 331 326 320 316 314 312 312 311 310 310 310 310 310 309 308 310 310 307
335 316 327 329 310 279 257 264 264 204 111 89 75 71 76 79 82 87 91 104 126 131 131 135 131 123 124 127 129 127 121 116 113 107 105 105 105 107 104 100 95 89 84 75 56 54 65 63 49 40 30 15 6 3 359 355 352 346 340 340 338 331 329 327 323 323 322 319 317 314 310 309 307 305 306 308 309 311 315 316 314 311 311 316 316 310
333 314 327 331 309 295 279 288 289 175 104 96 81 70 72 80 85 92 101 111 122 125 129 139 136 123 123 132 134 133 127 121 115 110 108 108 108 111 119 136 144 139 121 111 85 57 60 52 40 34 19 3 348 339 336 334 333 331 328 326 323 322 324 322 320 321 317 313 311 307 304 305 302 299 301 304 307 311 314 312 308 307 307 311 313 308
328 302 327 322 296 299 289 275 283 150 112 98 81 69 65 84 94 101 112 123 134 135 137 145 142 133 136 143 140 134 133 129 119 112 110 107 104 111 118 120 168 180 152 139 204 37 31 1 349 344 336 334 324 316 317 318 319 319 315 314 314 316 318 316 317 318 313 310 309 305 305 305 302 302 302 301 302 305 308 307 305 304 304 304 305 302
308 292 305 295 291 296 284 282 296 178 140 108 86 81 76 103 117 119 130 139 140 138 141 147 148 144 142 145 146 142 144 144 131 126 129 123 117 144 149 115 196 218 211 233 278 321 334 326 330 329 322 319 315 312 314 313 312 311 309 309 310 310 311 311 312 312 309 308 306 305 306 307 304 303 302 298 298 302 306 307 304 302 302 301 300 299
290 283 281 266 277 292 295 302 308 278 210 106 110 109 92 120 139 135 144 152 145 143 160 165 151 141 140 148 155 151 149 144 131 136 145 132 125 193 202 224 258 259 266 277 289 303 309 311 314 313 309 310 311 311 313 313 312 312 311 311 310 308 308 308 308 307 306 305 304 304 304 304 302 301 299 299 301 304 306 305 303 303 302 299 298 300
258 256 263 257 265 283 300 308 295 272 243 163 170 135 108 128 148 146 147 152 146 152 171 165 145 140 143 147 149 148 154 159 152 155 158 153 167 202 258 288 288 289 286 284 289 294 299 304 305 303 305 309 312 314 314 313 313 315 315 315 313 310 309 307 305 305 304 303 303 303 303 303 302 301 301 303 304 307 307 305 305 305 302 301 303 305
259 251 247 256 260 269 285 289 277 265 144 225 226 148 130 137 148 148 141 138 142 153 157 150 147 150 151 150 153 157 170 184 179 172 183 201 214 239 295 306 309 307 291 286 292 297 301 307 305 304 309 314 316 316 316 317 318 320 321 323 323 322 321 320 317 314 312 309 308 309 309 310 311 310 310 310 311 313 313 312 310 307 305 308 311 308
269 252 245 265 264 252 267 287 281 281 232 232 231 160 158 158 160 166 148 138 147 158 157 157 157 157 155 157 167 176 184 196 191 176 228 248 250 274 291 299 303 301 294 294 298 301 307 311 310 311 313 315 320 321 321 323 325 326 330 332 334 335 335 334 332 330 328 326 325 325 324 323 323 322 322 321 322 322 321 320 317 315 315 319 321 318
249 235 223 240 262 258 264 263 249 253 224 206 197 179 181 182 187 188 151 135 151 167 173 170 160 158 163 166 174 182 188 210 232 217 249 250 259 274 287 299 301 300 305 309 310 313 317 318 319 320 321 322 327 330 329 330 333 334 337 339 339 339 338 337 338 339 338 337 335 334 333 332 332 333 333 334 334 333 332 329 328 329 331 333 332 330
250 241 224 220 243 263 260 246 247 255 203 195 202 195 191 184 180 181 152 147 171 181 178 172 162 170 186 184 179 180 183 220 237 225 227 242 254 276 297 306 306 310 315 314 318 321 321 323 325 325 326 328 331 333 334 335 337 337 339 339 338 339 338 339 343 345 344 343 341 338 338 338 340 343 343 343 342 340 339 338 338 339 341 340 338 335
233 243 238 235 242 262 281 281 276 272 202 197 197 186 186 175 171 184 185 179 188 183 164 160 165 182 195 193 190 190 194 219 234 226 229 248 261 281 297 303 307 313 316 315 318 320 319 322 325 325 328 330 332 335 336 336 337 337 338 338 339 342 347 352 357 359 359 359 356 355 356 358 359 359 356 354 353 350 347 345 346 347 346 343 341 339
238 242 243 240 239 259 290 289 275 256 205 199 193 182 179 171 175 190 180 180 192 179 135 144 167 181 186 188 199 208 211 222 229 221 227 251 263 273 288 299 302 306 310 310 313 316 318 322 324 326 329 330 332 336 337 338 341 344 347 353 360 7 14 19 23 23 23 22 20 20 20 18 17 13 8 4 1 358 355 352 352 353 351 347 344 342
252 238 228 227 233 267 287 273 258 243 212 207 205 187 168 160 177 185 165 173 195 180 141 146 155 159 170 181 193 204 206 207 213 218 229 244 250 261 281 294 299 304 308 310 313 317 319 321 325 328 330 333 337 341 345 352 2 15 25 32 35 35 34 34 33 31 29 27 24 22 19 17 15 12 8 5 1 358 357 355 353 353 351 347 346 345
219 209 191 200 224 272 264 228 226 240 216 207 203 187 171 167 178 174 157 155 166 156 139 143 143 137 154 179 193 198 196 197 203 208 216 229 249 273 288 297 303 307 309 311 315 317 319 322 327 332 336 343 350 360 16 31 41 46 47 46 42 35 31 28 24 21 19 16 12 9 7 4 2 0 358 356 352 350 349 348 346 346 344 342 340 339
223 205 184 193 208 205 194 195 209 224 206 194 188 182 180 179 173 162 148 141 147 150 147 152 152 139 142 172 189 188 185 189 193 198 217 245 269 285 293 300 303 305 307 310 312 314 319 326 331 340 350 5 25 43 51 52 50 45 39 35 29 22 17 14 10 7 5 2 358 356 354 351 349 348 347 346 344 341 339 338 338 337 336 335 334 332
209 193 184 194 193 176 189 213 223 213 196 187 178 168 167 167 157 148 144 142 144 146 149 160 168 162 163 179 183 168 164 172 182 212 247 269 281 287 294 298 298 300 302 305 308 314 322 333 346 9 34 51 59 58 50 41 33 26 21 17 12 6 3 1 358 355 353 351 348 347 345 343 342 340 338 338 336 333 332 331 332 333 332 330 330 329
191 189 186 192 172 161 185 219 208 175 176 179 156 143 148 157 155 150 149 150 151 151 153 155 158 159 164 169 165 156 159 180 224 256 266 277 283 286 290 291 293 298 300 302 311 322 341 20 50 64 68 65 52 37 27 21 14 8 6 2 358 356 355 352 349 347 345 343 341 338 337 335 334 332 331 330 328 327 328 328 327 328 328 327 327 327
169 184 184 185 176 154 152 174 161 147 153 153 137 137 144 147 148 149 150 155 165 171 165 140 130 136 140 138 141 158 187 213 244 263 270 276 281 284 286 287 290 294 298 310 339 37 73 77 74 67 53 36 22 11 5 2 359 355 354 351 348 347 344 341 338 336 334 332 330 329 328 326 324 323 323 322 321 320 320 320 321 323 323 323 324 323
171 186 174 177 178 163 145 150 151 147 146 137 131 140 147 145 147 152 157 165 171 165 144 125 124 136 146 144 160 194 215 232 250 262 264 268 272 274 278 285 291 302 8 93 101 100 93 81 57 31 10 357 354 351 348 347 344 341 339 336 333 332 329 327 326 324 323 323 322 320 320 319 318 317 315 314 315 315 314 314 314 315 315 316 317 317
180 175 171 171 172 164 149 145 143 139 135 131 127 135 145 153 162 163 163 167 159 136 128 132 139 161 183 205 220 229 238 244 250 254 252 254 260 263 265 250 133 121 120 124 125 118 106 32 344 343 338 337 337 334 331 330 327 324 322 321 319 318 317 316 315 315 315 315 314 314 314 313 312 311 311 310 309 309 309 310 309 309 309 309 308 310
180 176 174 167 158 153 149 142 133 126 127 134 143 147 149 156 161 154 152 152 137 130 151 174 200 223 234 243 248 253 256 250 249 254 251 239 226 188 147 135 137 139 143 156 180 256 299 313 320 321 321 322 322 320 318 317 314 312 312 311 310 311 310 310 310 310 310 310 310 309 308 308 307 307 307 307 308 307 306 304 303 303 305 306 307 308
166 157 156 159 153 149 147 140 134 132 132 134 140 144 143 140 132 132 141 151 155 171 195 206 220 232 236 245 252 254 248 240 245 252 211 161 148 145 145 151 162 172 201 247 276 296 304 310 311 311 313 312 311 311 310 308 307 306 305 305 306 306 307 307 307 307 307 308 307 306 305 304 304 304 304 304 305 306 306 304 303 301 300 303 306 307